The Dalles, WA

10:06 AM PDT on May 26, 2017 (GMT -0700)
Columbia Gorge Regional-The Dalles

Weather History for KDLS - July, 2013

Change the Weather History Date:

Wednesday, July 24, 2013

  Actual Average Record
Temperature  
Mean Temperature 81 °F -  
Max Temperature 100 °F 89 °F 106 °F (2004)
Min Temperature 63 °F 61 °F 50 °F (1953)
Cooling Degree Days 16    
Growing Degree Days 31 (Base 50)    
Moisture  
Dew Point 50 °F    
Average Humidity 36    
Maximum Humidity 63    
Minimum Humidity 12    
Precipitation  
Precipitation 0.00 in - - ()
Sea Level Pressure  
Sea Level Pressure 29.90 in    
Wind  
Wind Speed 11 mph (NW)    
Max Wind Speed 20 mph    
Max Gust Speed 25 mph    
Visibility 10 miles    
Events      
Averages and records for this station are not official NWS values.
T = Trace of Precipitation, MM = Missing Value Source: NWS Daily Summary

Daily Weather History Graph

Daily Weather History Graph

Search for Another Location

Airport or City:

Trip Planner

Search our weather history database for the weather conditions in past years. The results will help you decide how hot, cold, wet, or windy it might be!

Date:

Astronomy

Jul. 24, 2013 Rise Set
Actual Time 5:39 AM PDT 8:42 PM PDT
Civil Twilight 5:04 AM PDT 9:17 PM PDT
Nautical Twilight 4:18 AM PDT 10:02 PM PDT
Astronomical Twilight 3:23 AM PDT 10:56 PM PDT
Moon 9:38 PM PDT (7/24) 8:16 AM PDT (7/24)
Length of Visible Light 16h 13m
Length of Day
15h 02m
Waning Gibbous, 94% of the Moon is Illuminated
Jul 24
Waning Gibbous
Jul 29
Last Quarter
Aug 6
New
Aug 14
First Quarter
Aug 20
Full

Hourly Weather History & Observations

Time (PDT) Temp. Heat Index Dew Point Humidity Pressure Visibility Wind Dir Wind Speed Gust Speed Precip Events Conditions
12:53 AM 78.1 °F - 57.0 °F 48% 29.90 in 10.0 mi NW 11.5 mph 20.7 mph N/A   Clear
1:53 AM 75.0 °F - 57.0 °F 53% 29.91 in 10.0 mi NW 12.7 mph 19.6 mph N/A   Clear
2:53 AM 73.9 °F - 55.9 °F 53% 29.91 in 10.0 mi WNW 6.9 mph - N/A   Clear
3:53 AM 72.0 °F - 57.9 °F 61% 29.92 in 10.0 mi WNW 15.0 mph 23.0 mph N/A   Clear
4:53 AM 69.1 °F - 55.9 °F 63% 29.93 in 10.0 mi Calm Calm - N/A   Clear
5:53 AM 63.0 °F - 50.0 °F 63% 29.94 in 10.0 mi WSW 3.5 mph - N/A   Clear
6:53 AM 66.0 °F - 50.0 °F 56% 29.94 in 10.0 mi Calm Calm - N/A   Clear
7:53 AM 73.0 °F - 57.0 °F 57% 29.94 in 10.0 mi WNW 4.6 mph - N/A   Clear
8:53 AM 78.1 °F - 55.0 °F 45% 29.95 in 10.0 mi West 5.8 mph - N/A   Clear
9:53 AM 82.0 °F 81.6 °F 55.9 °F 41% 29.93 in 10.0 mi NW 11.5 mph - N/A   Clear
10:53 AM 86.0 °F 84.2 °F 54.0 °F 33% 29.91 in 10.0 mi NNW 16.1 mph - N/A   Clear
11:53 AM 90.0 °F - 52.0 °F 27% 29.90 in 10.0 mi NNW 13.8 mph 23.0 mph N/A   Clear
12:53 PM 93.9 °F - 46.0 °F 19% 29.88 in 10.0 mi NNW 13.8 mph - N/A   Clear
1:53 PM 96.1 °F - 48.0 °F 19% 29.87 in 10.0 mi NNW 18.4 mph - N/A   Clear
2:53 PM 99.0 °F - 37.9 °F 12% 29.86 in 10.0 mi WNW 16.1 mph 21.9 mph N/A   Clear
3:53 PM 99.0 °F - 43.0 °F 15% 29.85 in 10.0 mi WNW 16.1 mph - N/A   Clear
4:53 PM 97.0 °F - 45.0 °F 17% 29.84 in 10.0 mi WNW 17.3 mph 25.3 mph N/A   Clear
5:53 PM 93.9 °F - 43.0 °F 17% 29.84 in 10.0 mi NW 18.4 mph - N/A   Clear
6:53 PM 91.0 °F - 46.9 °F 22% 29.85 in 10.0 mi NW 19.6 mph - N/A   Clear
7:53 PM 88.0 °F - 46.0 °F 23% 29.86 in 10.0 mi NW 19.6 mph 25.3 mph N/A   Clear
8:53 PM 84.0 °F - 48.0 °F 28% 29.87 in 10.0 mi NW 11.5 mph - N/A   Clear
9:53 PM 82.0 °F - 46.9 °F 29% 29.89 in 10.0 mi WNW 12.7 mph 17.3 mph N/A   Clear
10:53 PM 81.0 °F - 46.9 °F 30% 29.91 in 10.0 mi NNW 3.5 mph - N/A   Clear
11:53 PM 78.1 °F - 42.1 °F 28% 29.91 in 10.0 mi WNW 6.9 mph - N/A   Clear